Location: Hradec Kralove
(50.2170°N, 15.8330°E)
Time: 08:57:33
(UTC+01:00)

BlueWalker 3 - Pass Details

Date: 08 December 2022
Orbit: 499 x 517 km, 53.2° (Epoch: 29 January)

Event Time Altitude Azimuth Distance (km) Brightness Sun altitude
Rises 18:23:39 0° 292° (WNW) 2,630 6.6 -22.8°
Reaches altitude 10° 18:25:55 10° 285° (WNW) 1,736 5.6 -23.1°
Maximum altitude 18:29:38 42° 215° (SW) 740 3.0 -23.7°
Enters shadow 18:30:10 39° 192° (SSW) 772 2.9 -23.8°
